{"data":{"norad_id":45376,"intl_designator":"2020-019S","name":"STARLINK-1304","alt_names":[],"object_type":"PAYLOAD","status":"ACTIVE","operator":null,"country":"US","launch_date":"2020-03-18","launch_site_code":"AFETR","launch_vehicle":null,"mission":null,"orbit_class":"UNKNOWN","rcs_meters":null,"size_class":null,"mass_kg":null,"dimensions":null,"purposes":["comms"],"wikipedia_slug":null,"has_3d_model":false,"image_url":null,"decayed_at":null,"tle_current":{"epoch":"2026-05-25T03:20:52.001664Z","epoch_age_seconds":63030,"freshness":"FRESH","line1":"1 45376U 20019S   26145.13949076  .00087432  00000+0  10247-2 0  9993","line2":"2 45376  53.0417 139.9813 0006220  26.5062 333.6267 15.60790302341867","mean_motion":15.60790302,"eccentricity":0.000622,"inclination_deg":53.0417,"raan_deg":139.9813,"arg_perigee_deg":26.5062,"mean_anomaly_deg":333.6267,"bstar":0.0010247,"rev_number":34186,"period_min":92.260952554278,"perigee_km":381.16609025705,"apogee_km":389.57989668893,"semimajor_km":6763.509993473,"source":"CELESTRAK","updated_at":"2026-05-25T13:38:16.413967Z"}}}